DW4273 Weather Reports


Display with metric or nautical units.
time (UTC)temp
F
wind
direction
speed
MPH
gust
MPH
rain 1hr
in
rain 24hr
in
rain mn
in
humidity
%
barometer
mb
20260906203016 75 338 5.0 9.0 0.00 0.00 0.00 66 1014.7
20260906202016 75 23 8.0 14.0 0.00 0.00 0.00 66 1014.7
20260906201016 74 45 6.0 9.0 0.00 0.00 0.00 69 1014.8
20260906200542 74 45 7.0 10.0 0.00 0.00 0.00 68 1015.0
20260906200016 74 23 6.0 10.0 0.00 0.00 0.00 68 1014.9
20260906195017 75 23 5.0 7.0 0.00 0.00 0.00 66 1014.9
20260906194016 76 23 8.0 14.0 0.00 0.00 0.00 66 1014.9
20260906193017 76 0 6.0 11.0 0.00 0.00 0.00 64 1014.9
20260906192016 76 45 4.0 8.0 0.00 0.00 0.00 63 1015.1
20260906190016 77 45 6.0 10.0 0.00 0.00 0.00 55 1015.3
20260906185036 77 23 5.0 9.0 0.00 0.00 0.00 55 1015.3
20260906184016 78 45 7.0 11.0 0.00 0.00 0.00 52 1015.3
20260906183017 77 90 6.0 10.0 0.00 0.00 0.00 52 1015.3
20260906182016 76 68 6.0 12.0 0.00 0.00 0.00 55 1015.6
20260906181037 75 45 5.0 9.0 0.00 0.00 0.00 57 1015.7
20260906180037 75 23 5.0 10.0 0.00 0.00 0.00 56 1015.7
20260906175017 75 23 6.0 9.0 0.00 0.00 0.00 57 1015.7
20260906174057 76 68 7.0 14.0 0.00 0.00 0.00 56 1015.7
20260906173017 75 45 5.0 8.0 0.00 0.00 0.00 59 1015.8
20260906172016 76 0 6.0 10.0 0.00 0.00 0.00 60 1015.9
20260906171036 76 90 7.0 13.0 0.00 0.00 0.00 58 1015.9
20260906170016 74 23 6.0 11.0 0.00 0.00 0.00 63 1015.9
20260906165037 75 23 6.0 9.0 0.00 0.00 0.00 62 1015.9
20260906164016 75 23 7.0 12.0 0.00 0.00 0.00 62 1016.0
20260906163016 74 68 8.0 17.0 0.00 0.00 0.00 63 1015.9
20260906162037 73 45 7.0 12.0 0.00 0.00 0.00 65 1016.1
20260906161017 72 45 8.0 14.0 0.00 0.00 0.00 65 1016.1
20260906160016 72 23 6.0 9.0 0.00 0.00 0.00 69 1016.2
20260906155017 71 45 5.0 9.0 0.00 0.00 0.00 69 1016.1
20260906154017 72 23 7.0 14.0 0.00 0.00 0.00 69 1016.1
20260906153057 72 45 7.0 12.0 0.00 0.00 0.00 72 1016.1
20260906152016 71 0 5.0 9.0 0.00 0.00 0.00 74 1016.1
20260906151016 71 23 5.0 9.0 0.00 0.00 0.00 76 1016.0
20260906150057 71 23 6.0 9.0 0.00 0.00 0.00 76 1016.0
20260906145037 71 45 6.0 10.0 0.00 0.00 0.00 76 1016.0
20260906144016 71 23 7.0 11.0 0.00 0.00 0.00 76 1015.9
20260906143117 70 45 5.0 10.0 0.00 0.00 0.00 77 1015.9
20260906142117 70 45 4.0 10.0 0.00 0.00 0.00 83 1016.0
20260906141016 69 23 4.0 8.0 0.00 0.00 0.00 82 1016.0
20260906140057 68 45 6.0 9.0 0.00 0.00 0.00 84 1015.7
20260906135016 67 23 4.0 7.0 0.00 0.00 0.00 87 1015.8
20260906134016 66 68 5.0 9.0 0.00 0.00 0.00 89 1015.8
20260906133016 66 68 4.0 7.0 0.00 0.00 0.00 91 1015.8
20260906132016 65 68 3.0 6.0 0.00 0.00 0.00 93 1015.8
20260906131016 64 45 2.0 5.0 0.00 0.00 0.00 94 1015.8
20260906130017 64 0.0 0.0 0.00 0.00 0.00 95 1015.8
20260906125017 63 0.0 0.0 0.00 0.00 0.00 96 1015.7
20260906124016 61 0.0 0.0 0.00 0.00 0.00 96 1015.4
20260906123017 59 0.0 0.0 0.00 0.00 0.00 96 1015.2
20260906122620 58 0.0 0.0 0.00 0.00 0.00 96 1015.1
20260906121516 57 0.0 0.0 0.00 0.00 0.00 95 1015.1
20260906120517 56 0.0 0.0 0.00 0.00 0.00 95 1015.0
20260906115617 55 0.0 0.0 0.00 0.00 0.00 95 1014.8
20260906113557 54 0.0 0.0 0.00 0.00 0.00 95 1014.6
20260906112517 53 0.0 0.0 0.00 0.00 0.00 94 1014.4
20260906111517 54 0.0 0.0 0.00 0.00 0.00 94 1014.3
20260906110516 54 0.0 0.0 0.00 0.00 0.00 94 1014.2
20260906105517 53 0.0 0.0 0.00 0.00 0.00 94 1014.1
20260906104517 54 0.0 0.0 0.00 0.01 0.00 94 1014.3
20260906103517 54 0.0 0.0 0.00 0.01 0.00 94 1014.3
20260906102517 54 0.0 0.0 0.00 0.01 0.00 94 1014.2
20260906101517 53 0.0 0.0 0.00 0.01 0.00 93 1014.2
20260906100537 54 0.0 0.0 0.00 0.01 0.00 94 1014.4
20260906095517 54 0.0 0.0 0.00 0.01 0.00 93 1014.3
20260906094537 54 0.0 0.0 0.00 0.01 0.00 94 1014.2
20260906093517 54 0.0 0.0 0.00 0.01 0.00 94 1014.1
20260906092517 54 0.0 0.0 0.00 0.01 0.00 93 1013.9
20260906091537 55 0.0 0.0 0.00 0.01 0.00 93 1014.1
20260906090537 55 0.0 0.0 0.00 0.01 0.00 93 1014.2
20260906085517 55 0.0 0.0 0.00 0.01 0.00 93 1014.2
20260906084517 55 0.0 0.0 0.00 0.01 0.00 93 1014.2
20260906083517 56 0.0 0.0 0.00 0.01 0.00 93 1014.1
20260906083031 56 0.0 0.0 0.00 0.01 0.00 93 1014.2
20260906082537 56 0.0 0.0 0.00 0.01 0.00 93 1014.1
20260906081537 56 0.0 0.0 0.00 0.01 0.00 93 1013.9
20260906080517 56 0.0 0.0 0.00 0.01 0.00 93 1013.9
20260906075537 56 0.0 0.0 0.00 0.01 0.00 93 1013.8
20260906074517 55 0.0 0.0 0.00 0.01 0.00 93 1013.5
20260906073517 55 0.0 0.0 0.00 0.01 0.00 92 1013.5
20260906072517 56 0.0 0.0 0.00 0.01 0.00 92 1013.5
20260906071517 57 0.0 0.0 0.00 0.01 0.00 92 1013.4
20260906070517 57 0.0 0.0 0.00 0.01 0.00 92 1013.5
20260906065517 57 0.0 0.0 0.00 0.01 0.00 92 1013.4
20260906064517 57 0.0 0.0 0.00 0.01 0.00 92 1013.3
20260906063517 57 0.0 0.0 0.00 0.01 0.00 92 1013.3
20260906062537 57 0.0 0.0 0.00 0.01 0.00 92 1013.5
20260906061517 57 0.0 0.0 0.00 0.01 0.00 91 1013.5
20260906060517 58 0.0 0.0 0.00 0.01 0.00 91 1013.4
20260906055537 58 0.0 0.0 0.00 0.01 0.00 91 1013.4
20260906054517 58 0.0 0.0 0.00 0.01 0.00 91 1013.3
20260906053517 58 0.0 0.0 0.00 0.01 0.00 91 1013.4
20260906052517 58 0.0 0.0 0.00 0.01 0.00 91 1013.3
20260906051517 58 0.0 0.0 0.00 0.02 0.00 91 1013.3
20260906050517 58 0.0 0.0 0.00 0.03 0.00 90 1013.4
20260906045517 59 0.0 0.0 0.00 0.03 0.00 90 1013.4
20260906044517 59 0.0 0.0 0.00 0.04 0.00 90 1013.5
20260906043517 59 0.0 0.0 0.00 0.05 0.00 90 1013.4
20260906042517 59 0.0 0.0 0.00 0.05 0.00 90 1013.5
20260906041517 59 0.0 0.0 0.00 0.05 0.00 89 1013.3
20260906040557 60 0.0 0.0 0.00 0.05 0.00 89 1013.3
20260906035517 60 0.0 0.0 0.00 0.05 0.05 88 1013.3
20260906034517 60 0.0 0.0 0.00 0.05 0.05 88 1013.1
20260906033516 60 0.0 0.0 0.00 0.05 0.05 88 1013.2
20260906032516 61 0.0 0.0 0.00 0.05 0.05 88 1013.2
20260906031516 61 0.0 0.0 0.00 0.05 0.05 87 1013.2
20260906030516 61 0.0 0.0 0.00 0.05 0.05 86 1013.1
20260906025516 61 0.0 0.0 0.00 0.05 0.05 86 1013.2
20260906024536 62 0.0 0.0 0.00 0.05 0.05 85 1013.2
20260906023516 62 0.0 0.0 0.00 0.05 0.05 83 1013.0
20260906022557 63 0.0 0.0 0.00 0.05 0.05 83 1013.0
20260906021536 63 0.0 0.0 0.00 0.05 0.05 82 1012.9
20260906020517 64 0.0 1.0 0.00 0.05 0.05 82 1012.9
20260906015516 64 0.0 0.0 0.00 0.05 0.05 80 1012.7
20260906014516 65 0.0 1.0 0.00 0.05 0.05 80 1012.8
20260906013517 66 0.0 0.0 0.00 0.05 0.05 78 1012.8
20260906012516 66 0.0 1.0 0.00 0.05 0.05 78 1012.8
20260906011516 67 23 1.0 3.0 0.00 0.05 0.05 78 1012.6
20260906010537 67 45 2.0 3.0 0.00 0.05 0.05 77 1012.5
20260906005557 68 23 1.0 3.0 0.00 0.05 0.05 76 1012.7
20260906004516 68 45 2.0 4.0 0.00 0.05 0.05 76 1012.6
20260906003517 68 23 2.0 3.0 0.00 0.05 0.05 76 1012.6
20260906002516 69 23 2.0 4.0 0.00 0.05 0.05 75 1012.6
20260906001517 69 23 3.0 5.0 0.00 0.05 0.05 75 1012.4
20260906000517 69 23 4.0 6.0 0.00 0.05 0.05 75 1012.2
20260905235517 69 0 4.0 7.0 0.00 0.05 0.05 75 1012.1
20260905234517 70 23 4.0 7.0 0.00 0.05 0.05 75 1012.1
20260905233517 70 23 4.0 8.0 0.00 0.05 0.05 74 1012.1
20260905232517 71 23 5.0 9.0 0.00 0.05 0.05 74 1012.2
20260905231516 71 0 5.0 7.0 0.00 0.05 0.05 74 1012.1
20260905230517 71 23 5.0 7.0 0.00 0.05 0.05 74 1011.9
20260905230048 72 23 5.0 9.0 0.00 0.05 0.05 74 1011.8
20260905225516 72 23 5.0 9.0 0.00 0.05 0.05 74 1011.8
20260905224516 72 23 6.0 11.0 0.00 0.05 0.05 74 1011.6
20260905223516 72 23 5.0 9.0 0.00 0.05 0.05 78 1011.7
20260905222516 73 23 5.0 8.0 0.00 0.05 0.05 78 1011.7
20260905221517 73 0 5.0 9.0 0.00 0.05 0.05 78 1011.6
20260905220517 73 0 7.0 10.0 0.00 0.05 0.05 77 1011.4
20260905215557 74 23 6.0 11.0 0.00 0.05 0.05 78 1011.2
20260905214517 73 45 5.0 10.0 0.00 0.05 0.05 79 1011.2
20260905213517 74 23 6.0 9.0 0.00 0.05 0.05 78 1011.2
20260905212537 75 0 6.0 10.0 0.00 0.05 0.05 79 1011.1
20260905211517 75 0 4.0 9.0 0.00 0.05 0.05 82 1011.1
20260905210516 75 0 4.0 6.0 0.00 0.05 0.05 83 1011.1
20260905205517 75 23 4.0 7.0 0.00 0.05 0.05 83 1011.1
20260905204516 75 23 4.0 5.0 0.00 0.05 0.05 84 1011.2
20260905203517 75 45 2.0 4.0 0.00 0.05 0.05 85 1011.3